Weather History for St. Joseph, MO

Change the Weather History Date:

Monday, August 12, 2013

  Actual Average Record
Temperature  
Mean Temperature 76 °F 76 °F  
Max Temperature 86 °F 87 °F 107 °F (1936)
Min Temperature 65 °F 66 °F 43 °F (2004)
Degree Days  
Heating Degree Days 0 0  
Month to date heating degree days 0 0  
Since 1 June heating degree days 17 9  
Since 1 July heating degree days 2 1  
Cooling Degree Days 11 11  
Month to date cooling degree days 118 142  
Year to date cooling degree days 865 896  
Since 1 June cooling degree days 739 783  
Growing Degree Days 24 (Base 50)    
Moisture  
Dew Point 68 °F    
Average Humidity 79    
Maximum Humidity 100    
Minimum Humidity 58    
Precipitation  
Precipitation 0.12 in 0.13 in 2.91 in (1973)
Month to date precipitation 0.75 1.37  
Year to date precipitation 19.16 23.69  
Sea Level Pressure  
Sea Level Pressure 30.01 in    
Wind  
Wind Speed 3 mph (NW)    
Max Wind Speed 23 mph    
Max Gust Speed 30 mph    
Visibility 8 miles    
Events Fog , Rain , Thunderstorm    
T = Trace of Precipitation, MM = Missing Value Source: NWS Daily Summary

Daily Weather History Graph

Daily Weather History Graph

Search for Another Location

Airport:

Trip Planner

Search our weather history database for the weather conditions in past years. The results will help you decide how hot, cold, wet, or windy it might be!

Date:

Astronomy

Aug. 12, 2013 Rise Set
Actual Time 6:29 AM CDT 8:19 PM CDT
Civil Twilight 5:59 AM CDT 8:48 PM CDT
Nautical Twilight 5:24 AM CDT 9:23 PM CDT
Astronomical Twilight 4:46 AM CDT 10:01 PM CDT
Moon 12:19 PM CDT (8/12) 11:13 PM CDT (8/12)
Length of Visible Light 14h 48m
Length of Day
13h 50m
Waxing Crescent, 31% of the Moon is Illuminated
Aug 12
Waxing Crescent
Aug 14
First Quarter
Aug 20
Full
Aug 28
Last Quarter
Sep 5
New

Hourly Weather History & Observations

Time (CDT) Temp. Heat Index Dew Point Humidity Pressure Visibility Wind Dir Wind Speed Gust Speed Precip Events Conditions
12:53 AM 71.1 °F - 68.0 °F 90% 30.02 in 7.0 mi Calm Calm - N/A   Clear
1:53 AM 72.0 °F - 68.0 °F 87% 30.01 in 10.0 mi Calm Calm - N/A   Clear
2:53 AM 72.0 °F - 68.0 °F 87% 30.00 in 10.0 mi Calm Calm - N/A   Clear
3:53 AM 68.0 °F - 66.0 °F 93% 29.99 in 8.0 mi Calm Calm - N/A   Clear
4:53 AM 70.0 °F - 68.0 °F 93% 29.99 in 9.0 mi Calm Calm - N/A   Clear
5:53 AM 69.1 °F - 66.9 °F 93% 30.00 in 7.0 mi North 3.5 mph - N/A   Clear
6:53 AM 71.1 °F - 68.0 °F 90% 30.01 in 3.0 mi West 9.2 mph - 0.06 in Rain Rain
7:02 AM 71.6 °F - 68.0 °F 88% 30.01 in 2.5 mi West 3.5 mph - 0.03 in Rain Light Rain
7:09 AM 71.6 °F - 68.0 °F 88% 30.00 in 4.0 mi Calm Calm - 0.03 in Rain Light Rain
7:53 AM 71.1 °F - 69.1 °F 93% 29.94 in 5.0 mi East 3.5 mph - 0.03 in   Scattered Clouds
8:53 AM 71.1 °F - 69.1 °F 93% 29.99 in 5.0 mi NNW 6.9 mph - N/A   Overcast
9:11 AM 71.6 °F - 69.8 °F 94% 30.03 in 7.0 mi NW 5.8 mph - N/A   Overcast
9:24 AM 71.6 °F - 69.8 °F 94% 30.04 in 7.0 mi West 4.6 mph - N/A   Overcast
9:53 AM 72.0 °F - 70.0 °F 93% 30.03 in 9.0 mi West 4.6 mph - N/A   Overcast
10:32 AM 73.4 °F - 69.8 °F 88% 30.03 in 10.0 mi Calm Calm - N/A   Scattered Clouds
10:53 AM 75.0 °F - 71.1 °F 87% 30.02 in 10.0 mi Calm Calm - N/A   Mostly Cloudy
11:23 AM 77.0 °F - 71.6 °F 83% 30.04 in 10.0 mi Calm Calm - N/A   Overcast
11:31 AM 77.0 °F - 71.6 °F 83% 30.04 in 10.0 mi Calm Calm - N/A   Overcast
11:40 AM 75.2 °F - 71.6 °F 89% 30.04 in 10.0 mi South 5.8 mph - N/A   Overcast
11:53 AM 73.9 °F - 71.1 °F 91% 30.01 in 10.0 mi SSW 6.9 mph - N/A   Overcast
12:08 PM 77.0 °F - 71.6 °F 83% 30.02 in 10.0 mi SW 5.8 mph - N/A   Mostly Cloudy
12:21 PM 78.8 °F - 71.6 °F 78% 30.02 in 10.0 mi Variable 4.6 mph - N/A   Scattered Clouds
12:53 PM 80.1 °F 83.2 °F 70.0 °F 71% 30.00 in 10.0 mi WSW 3.5 mph - N/A   Scattered Clouds
1:53 PM 82.9 °F 85.4 °F 66.9 °F 58% 29.99 in 10.0 mi Calm Calm - N/A   Scattered Clouds
2:53 PM 84.0 °F 87.0 °F 68.0 °F 58% 29.96 in 10.0 mi Calm Calm - N/A   Clear
3:28 PM 84.2 °F 88.4 °F 69.8 °F 62% 30.02 in 10.0 mi NNE 23.0 mph 29.9 mph N/A Thunderstorm Mostly Cloudy
3:43 PM 73.4 °F - 62.6 °F 69% 30.03 in 10.0 mi NNE 20.7 mph 26.5 mph N/A   Overcast
3:53 PM 73.0 °F - 64.9 °F 76% 30.00 in 10.0 mi NNE 8.1 mph - 0.00 in Rain Light Rain
4:29 PM 71.6 °F - 66.2 °F 83% 30.00 in 10.0 mi North 9.2 mph - 0.00 in Thunderstorm Overcast
4:53 PM 71.1 °F - 68.0 °F 90% 30.01 in 10.0 mi North 8.1 mph - 0.00 in Rain Light Rain
5:53 PM 72.0 °F - 69.1 °F 91% 29.98 in 10.0 mi NNW 6.9 mph - 0.03 in Rain Light Rain
6:53 PM 73.9 °F - 70.0 °F 87% 29.96 in 10.0 mi North 3.5 mph - 0.00 in   Clear
7:53 PM 73.0 °F - 69.1 °F 87% 29.98 in 10.0 mi North 3.5 mph - N/A   Clear
8:53 PM 70.0 °F - 68.0 °F 93% 29.99 in 10.0 mi Calm Calm - N/A   Clear
9:53 PM 68.0 °F - 66.9 °F 96% 30.02 in 7.0 mi Calm Calm - N/A   Clear
10:53 PM 66.0 °F - 64.0 °F 93% 30.03 in 7.0 mi Calm Calm - N/A   Partly Cloudy
10:58 PM 66.2 °F - 64.4 °F 94% 30.05 in 1.2 mi Calm Calm - N/A   Scattered Clouds
11:01 PM 64.4 °F - 64.4 °F 100% 30.05 in 0.8 mi Calm Calm - N/A   Mist
11:53 PM 66.0 °F - 66.0 °F 100% 30.04 in 0.2 mi Calm Calm - N/A Fog Fog